sat.trackr.live / text

‹ back to catalog

BEIDOU-3S IGSO-2S (C56)

NORAD 40938 · 2015-053A

PAYLOAD INACTIVE UNKNOWN

§ Identity

Operator
Country
PRC
Launch date
2015-09-29
Launch site
XICLF
Launch vehicle
Mass (kg)
RCS (m²)
61.22

Purposes: comms, nav

External: N2YO · Heavens-Above · Gunter

§ Orbital elements

Epoch: 2026-09-19T21:27:49.711104Z

Period
1,435.93 min
Inclination
49.0826°
Eccentricity
0.0065426
Mean motion
1.00283418 rev/d
Perigee alt
35,507.5 km
Apogee alt
36,059.2 km
Semi-major
42,161.5 km
B*
0.0000e+0
RAAN
257.6464°
Arg perigee
192.7057°
Mean anomaly
326.3890°
Rev number
4,030

§ Raw data

BEIDOU-3S IGSO-2S (C56)1 40938U 15053A   26262.89432536 -.00000097  00000+0  00000+0 0  99912 40938  49.0826 257.6464 0065426 192.7057 326.3890  1.00283418 40308

JSON: /api/v1/satellites/40938 · /tle

For live sub-satellite position, see the globe view (requires WebGL).

§ Visibility from observer

Set your observer location to see the next 7 days of passes ≥ 10°. The values pass through the URL so the page stays shareable.

No JS? Fill the form by hand. The geolocation button needs JavaScript.